[[{"header":{"parameterUnit":"m.s-1","parameterCategory":1,"la1":30.2991,"la2":30.254,"lo1":-89.0895,"lo2":-89.0444,"dy":0.0017,"dx":0.0017,"nx":28,"ny":28,"refTime":"2025-12-01T03:00:00:Z","depth":0,"parameterNumber":2,"parameterNumberName":"U-component_of_WINDS"},"data":[0,0,0,0,0,0,0,0,0,0,0,0,0,0,0,0,0,0,0,0,0,0,0,0,0,0,0,0,0,0,0,0,0,0,0,0,0,0,0,0,0,0,0,0,0,0,0,0,0,0,0,0,0,0,0,0,0,0,-3.3245,-3.3245,0,-3.332,-3.332,-3.3321,-3.322,-3.3216,-3.3212,-3.3209,-3.3295,-3.33,-3.3306,0,0,0,0,0,0,0,0,0,0,0,0,0,-3.3023,-3.3027,-3.3245,-3.3246,-3.3246,-3.3319,-3.332,-3.3322,-3.322,-3.3216,-3.3211,-3.3207,-3.3293,-3.33,-3.3306,0,0,0,0,0,0,0,0,0,0,0,0,0,-3.3111,-3.3029,-3.3244,-3.3205,-3.3202,-3.3319,-3.3321,-3.3322,-3.3221,-3.3216,-3.321,-3.3205,-3.3291,-3.3299,-3.3307,-3.347,0,0,-3.3333,-3.3337,0,0,0,0,0,0,0,0,-3.3106,-3.3119,-3.321,-3.3208,-3.3205,-3.3254,-3.3274,-3.3372,-3.3223,-3.3214,-3.3209,-3.3202,-3.3286,-3.3295,-3.3321,-3.3474,-3.3478,-3.3334,-3.3339,-3.3343,-3.3345,0,0,0,0,0,0,0,-3.31,-3.3116,-3.3274,-3.3211,-3.3208,-3.3186,-3.3192,-3.3292,-3.3281,-3.3215,-3.3207,-3.3217,-3.3284,-3.3313,-3.3323,-3.3479,-3.3334,-3.3342,-3.3347,-3.335,-3.3771,-3.3777,0,0,0,0,0,0,-3.3098,-3.3111,-3.3272,-3.3277,-3.314,-3.3194,-3.3201,-3.3244,-3.3279,-3.3279,-3.3222,-3.3212,-3.3301,-3.3313,-3.3325,-3.3519,-3.3343,-3.3351,-3.3356,-3.3765,-3.3773,-3.3779,0,0,0,0,0,0,-3.3093,-3.3113,-3.3269,-3.3192,-3.321,-3.3204,-3.3253,-3.3249,-3.3278,-3.3284,-3.3283,-3.3253,-3.3298,-3.3313,-3.3435,-3.3521,-3.3355,-3.3363,-3.3758,-3.3768,-3.3776,-3.3908,0,0,0,0,0,0,-3.3087,-3.3112,-3.3171,-3.3194,-3.3215,-3.3375,-3.3258,-3.3254,-3.3292,-3.328,-3.3313,-3.3314,-3.3294,-3.3422,-3.3443,-3.3529,-3.3369,-3.3751,-3.3762,-3.3773,-3.3896,-3.392,-3.3941,0,0,0,0,0,-3.308,-3.3207,-3.3175,-3.3195,-3.3289,-3.338,-3.3392,-3.3365,-3.3299,-3.336,-3.3365,-3.3313,-3.3508,-3.3436,-3.3458,-3.3548,-3.3745,-3.3759,-3.3772,-3.3886,-3.3916,-3.3941,0,0,0,0,0,0,-3.3198,-3.3209,-3.3174,-3.3312,-3.3345,-3.3363,-3.3439,-3.3397,-3.3452,-3.3439,-3.3405,-3.3414,-3.3544,-3.3558,-3.3478,-3.3709,-3.3616,-3.3635,-3.3695,-3.3723,-3.3745,-3.374,-3.3376,0,0,0,0,0,-3.324,-3.331,-3.3317,-3.3439,-3.3457,-3.3446,-3.3484,-3.346,-3.3495,-3.3509,-3.3522,-3.3561,-3.363,-3.3677,-3.3742,-3.3897,-3.3905,-3.3971,-3.3993,-3.4012,-3.4029,-3.4114,-3.4144,-3.3824,-3.3824,-3.3824,0,0,-3.3328,-3.3343,-3.339,-3.3463,-3.3486,-3.3563,-3.3458,-3.3544,-3.3601,-3.3523,-3.3638,-3.365,-3.369,-3.3829,-3.3892,-3.3846,-3.4119,-3.4029,-3.4044,-3.4051,-3.4131,-3.4162,-3.4189,-3.3833,-3.3832,-3.383,0,0,-3.3527,-3.3544,-3.3648,-3.3673,-3.3708,-3.3699,-3.3724,-3.3748,-3.3752,-3.3866,-3.3809,-3.3879,-3.3999,-3.4031,-3.4063,-3.4275,-3.423,-3.4297,-3.4417,-3.45,-3.4525,-3.4547,-3.4625,-3.4652,-3.4314,-3.4314,-3.4315,0,-3.3633,-3.3742,-3.3707,-3.3796,-3.3831,-3.3761,-3.3868,-3.3895,-3.3951,-3.3978,-3.3925,-3.4075,-3.4097,-3.4244,-3.4295,-3.4323,-3.4353,-3.4293,-3.4524,-3.4546,-3.4566,-3.4639,-3.4668,-3.4322,-3.4321,-3.4321,-3.432,0,-3.3872,-3.3949,-3.4029,-3.4082,-3.4126,-3.4223,-3.4205,-3.4255,-3.4227,-3.4225,-3.4344,-3.4368,-3.4437,-3.447,-3.4445,-3.4614,-3.4584,-3.4528,-3.4434,-3.4605,-3.4673,-3.4701,-3.4334,-3.4331,-3.4329,-3.4327,0,0,-3.4148,-3.4179,-3.4209,-3.4233,-3.4267,-3.4328,-3.4423,-3.4488,-3.4532,-3.4573,-3.4654,-3.4758,-3.4706,-3.4743,-3.4721,-3.4794,-3.4962,-3.4729,-3.4729,-3.4772,-3.5152,-3.5195,-3.5228,-3.4932,-3.4937,-3.4941,-3.5149,0,-3.4348,-3.4509,-3.448,-3.4639,-3.4711,-3.4647,-3.473,-3.4762,-3.4763,-3.4827,-3.483,-3.4904,-3.4829,-3.4851,-3.492,-3.4927,-3.5038,-3.4911,-3.501,-3.5014,-3.5002,-3.5263,-3.5308,-3.5503,-3.5176,-3.518,-3.5183,0,-3.4602,-3.465,-3.4815,-3.4838,-3.4868,-3.4943,-3.5,-3.5061,-3.5097,-3.5093,-3.5134,-3.5099,-3.5197,-3.5101,-3.5238,-3.5152,-3.5191,-3.5201,-3.5208,-3.5217,-3.511,-3.5281,-3.5565,-3.5594,-3.5225,-3.5221,-3.5219,0,-3.4789,-3.4895,-3.5007,-3.5029,-3.5059,-3.5114,-3.5129,-3.5159,-3.52,-3.5252,-3.5278,-3.5342,-3.5377,-3.5428,-3.5412,-3.5343,-3.5554,-3.5456,-3.5556,-3.5556,-3.5604,-3.5601,-3.5899,-3.5627,-3.5627,-3.5626,-3.5626,0,-3.5015,-3.5119,-3.5091,-3.5161,-3.5276,-3.5244,-3.536,-3.5368,-3.5395,-3.5468,-3.5417,-3.5486,-3.546,-3.5529,-3.5518,-3.5634,-3.565,-3.5652,-3.5648,-3.5657,-3.5657,-3.5683,-3.567,-3.5634,-3.5632,-3.5631,-3.5629,0,-3.5243,-3.5228,-3.5347,-3.5365,-3.5372,-3.5456,-3.5473,-3.554,-3.5537,-3.5629,-3.5649,-3.5646,-3.5724,-3.5713,-3.5801,-3.5794,-3.5939,-3.5918,-3.5926,-3.5922,-3.6022,-3.6014,-3.6348,-3.6391,-3.6091,-3.6094,-3.6096,0,-3.5389,-3.5467,-3.5493,-3.5536,-3.5555,-3.5625,-3.5666,-3.5638,-3.5683,-3.573,-3.5792,-3.5866,-3.5923,-3.6052,-3.606,-3.6128,-3.6109,-3.6222,-3.6119,-3.6126,-3.6112,-3.6108,-3.6117,-3.6242,-3.6246,-3.6249,-3.6251,0,-3.5651,-3.5639,-3.5698,-3.5756,-3.5805,-3.585,-3.589,-3.5929,-3.5905,-3.5959,-3.6037,-3.6081,-3.617,-3.6245,-3.6309,-3.6328,-3.6288,-3.6283,-3.631,-3.6321,-3.6322,-3.6324,-3.5983,-3.6276,-3.6273,-3.6271,-3.627,-3.6269,-3.5843,-3.5909,-3.5937,-3.6006,-3.6032,-3.6071,-3.6134,-3.6138,-3.6202,-3.627,-3.6251,-3.634,-3.6376,-3.6457,-3.6483,-3.6555,-3.6514,-3.6553,-3.6563,-3.6573,-3.6586,-3.631,-3.6567,-3.6566,-3.6565,-3.6565,-3.6564,0,-3.6102,-3.6117,-3.618,-3.6236,-3.629,-3.6243,-3.6285,-3.6335,-3.6413,-3.6448,-3.6505,-3.6596,-3.6669,-3.6682,-3.6751,-3.6807,-3.679,-3.6826,-3.6822,-3.6828,-3.6618,-3.6588,-3.6839,-3.6839,-3.6838,-3.6838,-3.6838,-3.6838,-3.6244,-3.6354,-3.6346,-3.6471,-3.6485,-3.657,-3.6598,-3.6635,-3.6663,-3.6766,-3.6824,-3.6831,-3.6859,-3.693,-3.6995,-3.6998,-3.7027,-3.7071,-3.7066,-3.687,-3.6843,-3.6816,-3.6788,-3.7077,-3.7077,-3.727,-3.7272,-3.7273]},{"header":{"parameterUnit":"m.s-1","parameterCategory":1,"la1":30.2991,"la2":30.254,"lo1":-89.0895,"lo2":-89.0444,"dy":0.0017,"dx":0.0017,"nx":28,"ny":28,"refTime":"2025-12-01T03:00:00:Z","depth":0,"parameterNumber":3,"parameterNumberName":"V-component_of_WINDS"},"data":[0,0,0,0,0,0,0,0,0,0,0,0,0,0,0,0,0,0,0,0,0,0,0,0,0,0,0,0,0,0,0,0,0,0,0,0,0,0,0,0,0,0,0,0,0,0,0,0,0,0,0,0,0,0,0,0,0,0,-2.6415,-2.6415,0,-2.6412,-2.6412,-2.6412,-2.6366,-2.6365,-2.6363,-2.6362,-2.6359,-2.6361,-2.6362,0,0,0,0,0,0,0,0,0,0,0,0,0,-2.638,-2.6381,-2.6415,-2.6415,-2.6415,-2.6413,-2.6412,-2.6412,-2.6366,-2.6364,-2.6363,-2.6362,-2.6359,-2.636,-2.6362,0,0,0,0,0,0,0,0,0,0,0,0,0,-2.6388,-2.6381,-2.6415,-2.6392,-2.639,-2.6413,-2.6412,-2.6412,-2.6366,-2.6364,-2.6363,-2.6361,-2.6359,-2.636,-2.6362,-2.6407,0,0,-2.6367,-2.6367,0,0,0,0,0,0,0,0,-2.6388,-2.6389,-2.6395,-2.6394,-2.6391,-2.6388,-2.6399,-2.6411,-2.6367,-2.6375,-2.6362,-2.636,-2.637,-2.6371,-2.6374,-2.6407,-2.6407,-2.6367,-2.6368,-2.6368,-2.6369,0,0,0,0,0,0,0,-2.6387,-2.6389,-2.6414,-2.6395,-2.6393,-2.6381,-2.638,-2.6401,-2.6383,-2.6374,-2.6371,-2.6371,-2.6369,-2.6373,-2.6374,-2.6407,-2.6367,-2.6368,-2.6369,-2.637,-2.6475,-2.6477,0,0,0,0,0,0,-2.639,-2.6389,-2.6414,-2.6414,-2.6385,-2.6383,-2.6382,-2.6391,-2.6382,-2.6379,-2.6373,-2.6369,-2.6371,-2.6372,-2.6374,-2.6425,-2.6368,-2.637,-2.6371,-2.6473,-2.6475,-2.6477,0,0,0,0,0,0,-2.6389,-2.6393,-2.6414,-2.6401,-2.6403,-2.6386,-2.6395,-2.6391,-2.6395,-2.6381,-2.6378,-2.638,-2.637,-2.6371,-2.6399,-2.6424,-2.637,-2.6372,-2.6471,-2.6474,-2.6476,-2.6529,0,0,0,0,0,0,-2.6389,-2.6393,-2.641,-2.6402,-2.6404,-2.644,-2.6397,-2.6393,-2.6398,-2.6393,-2.6387,-2.6385,-2.6368,-2.6397,-2.64,-2.6425,-2.6373,-2.6469,-2.6472,-2.6476,-2.6525,-2.6533,-2.6541,0,0,0,0,0,-2.6388,-2.6426,-2.6411,-2.6415,-2.6425,-2.6442,-2.6443,-2.6423,-2.64,-2.6417,-2.6408,-2.6385,-2.6421,-2.64,-2.6404,-2.643,-2.6467,-2.6471,-2.6475,-2.6522,-2.6532,-2.654,0,0,0,0,0,0,-2.6438,-2.6424,-2.6408,-2.6445,-2.6445,-2.6434,-2.6455,-2.6435,-2.6442,-2.6437,-2.6413,-2.6412,-2.6443,-2.6439,-2.6416,-2.6472,-2.644,-2.6445,-2.6474,-2.6483,-2.6491,-2.6491,-2.6374,0,0,0,0,0,-2.6454,-2.6469,-2.6455,-2.6489,-2.649,-2.6472,-2.6479,-2.6464,-2.6463,-2.6463,-2.6456,-2.6456,-2.6467,-2.6475,-2.6484,-2.6524,-2.6522,-2.6544,-2.6552,-2.6558,-2.6563,-2.6582,-2.6591,-2.6491,-2.6491,-2.6491,0,0,-2.6486,-2.648,-2.6491,-2.6499,-2.6497,-2.6513,-2.6473,-2.6491,-2.6503,-2.6466,-2.6491,-2.6486,-2.6484,-2.6517,-2.6532,-2.6515,-2.659,-2.6563,-2.6569,-2.657,-2.6587,-2.6597,-2.6605,-2.6494,-2.6494,-2.6493,0,0,-2.6552,-2.655,-2.6576,-2.6575,-2.6573,-2.6561,-2.6567,-2.6559,-2.6554,-2.6579,-2.6551,-2.6564,-2.6584,-2.6583,-2.6586,-2.665,-2.6629,-2.6654,-2.6695,-2.6714,-2.6722,-2.6729,-2.6751,-2.6759,-2.6659,-2.6659,-2.6659,0,-2.6593,-2.6615,-2.6593,-2.6613,-2.6616,-2.6583,-2.661,-2.661,-2.6611,-2.6614,-2.6595,-2.6619,-2.6616,-2.6648,-2.6663,-2.6667,-2.6673,-2.6655,-2.6722,-2.6729,-2.6735,-2.6756,-2.6764,-2.6662,-2.6662,-2.6661,-2.6661,0,-2.6664,-2.668,-2.6702,-2.6703,-2.6709,-2.6733,-2.6713,-2.6722,-2.6706,-2.6696,-2.6721,-2.6716,-2.6723,-2.6729,-2.6714,-2.6759,-2.6749,-2.6727,-2.6694,-2.6748,-2.6767,-2.6775,-2.6666,-2.6665,-2.6664,-2.6664,0,0,-2.6764,-2.6751,-2.6759,-2.6758,-2.6753,-2.6764,-2.6786,-2.6792,-2.68,-2.6801,-2.6818,-2.6835,-2.6814,-2.6817,-2.6801,-2.6818,-2.6868,-2.6794,-2.6793,-2.6807,-2.6916,-2.6933,-2.6942,-2.6854,-2.6855,-2.6857,-2.6916,0,-2.6827,-2.6862,-2.6842,-2.688,-2.6894,-2.6862,-2.688,-2.6878,-2.6869,-2.6879,-2.6869,-2.6881,-2.6853,-2.6854,-2.6869,-2.6859,-2.689,-2.6855,-2.6869,-2.687,-2.687,-2.6952,-2.697,-2.7027,-2.6924,-2.6925,-2.6926,0,-2.6906,-2.691,-2.6949,-2.6939,-2.6944,-2.6961,-2.6964,-2.6975,-2.6971,-2.6963,-2.6966,-2.6945,-2.6965,-2.6932,-2.6958,-2.6935,-2.6939,-2.6935,-2.6937,-2.6937,-2.6901,-2.6955,-2.7044,-2.7053,-2.6937,-2.6937,-2.6936,0,-2.6973,-2.6988,-2.7013,-2.7014,-2.7003,-2.7015,-2.7012,-2.7007,-2.7011,-2.7015,-2.7017,-2.7023,-2.7026,-2.7031,-2.7012,-2.699,-2.704,-2.7006,-2.7034,-2.7034,-2.7046,-2.7045,-2.7137,-2.705,-2.705,-2.705,-2.7049,0,-2.7046,-2.7071,-2.7043,-2.7059,-2.7086,-2.7062,-2.7089,-2.7082,-2.7077,-2.709,-2.7063,-2.7076,-2.7051,-2.7061,-2.7046,-2.707,-2.7071,-2.7065,-2.7061,-2.7067,-2.7068,-2.707,-2.7065,-2.7052,-2.7051,-2.7051,-2.705,0,-2.7126,-2.7109,-2.7134,-2.7121,-2.7118,-2.7138,-2.7127,-2.714,-2.7129,-2.7146,-2.7148,-2.713,-2.714,-2.7122,-2.7131,-2.7121,-2.7153,-2.7143,-2.7154,-2.7151,-2.7179,-2.7177,-2.7275,-2.7286,-2.7192,-2.7193,-2.7194,0,-2.7174,-2.7192,-2.7181,-2.7187,-2.7184,-2.7195,-2.72,-2.7177,-2.7182,-2.7179,-2.7193,-2.7201,-2.7206,-2.7224,-2.7211,-2.7217,-2.7207,-2.7241,-2.7207,-2.7213,-2.7206,-2.7205,-2.7207,-2.7248,-2.7249,-2.725,-2.725,0,-2.726,-2.7249,-2.7256,-2.726,-2.7266,-2.7268,-2.7268,-2.7275,-2.725,-2.7258,-2.7268,-2.7271,-2.7279,-2.7287,-2.729,-2.7285,-2.7264,-2.7261,-2.7267,-2.7274,-2.7279,-2.7276,-2.7172,-2.7259,-2.7258,-2.7257,-2.7257,-2.7257,-2.7324,-2.7338,-2.7332,-2.734,-2.7338,-2.7338,-2.7349,-2.7339,-2.7346,-2.735,-2.7336,-2.7349,-2.7344,-2.7345,-2.7343,-2.7353,-2.7337,-2.7347,-2.735,-2.7352,-2.7356,-2.7278,-2.7353,-2.7353,-2.7353,-2.7352,-2.7352,0,-2.7408,-2.7402,-2.741,-2.741,-2.7416,-2.7394,-2.7393,-2.74,-2.7411,-2.7408,-2.7413,-2.7424,-2.7431,-2.7419,-2.7424,-2.7434,-2.7424,-2.7436,-2.7435,-2.7434,-2.737,-2.7364,-2.7444,-2.7443,-2.7443,-2.7443,-2.7443,-2.7443,-2.7452,-2.7475,-2.7464,-2.7484,-2.7478,-2.7489,-2.749,-2.749,-2.7487,-2.75,-2.7506,-2.7497,-2.749,-2.7494,-2.7499,-2.7496,-2.7498,-2.7514,-2.7507,-2.7447,-2.7438,-2.743,-2.7424,-2.7515,-2.7515,-2.7569,-2.757,-2.757]}]]